Regional Weather Roundup
Issued by NWS

Home | Current Version | Previous Version | Graphics & Text | Print | Product List | Glossary On
Versions: 1 2 3 4 5 6 7 8 9 10 11 12 13 14 15 16 17 18 19 20 21 22 23 24 25 26 27 28 29 30 31 32 33 34 35 36 37 38 39 40 41 42 43 44 45 46 47 48 49 50
000
ASUS43 KOAX 071502
RWRNE

WEATHER ROUNDUP FOR NEBRASKA
NATIONAL WEATHER SERVICE OMAHA NE
900 AM CST SUN FEB 07 2016

NOTES: SATELLITE DATA IS BEING USED TO AUGMENT CLOUD COVER ABOVE
       12000 FEET.
       "FAIR" INDICATES FEW OR NO CLOUDS BELOW 12,000 FEET WITH NO
       SIGNIFICANT WEATHER AND/OR OBSTRUCTIONS TO VISIBILITY.

  * THESE STATIONS DO NOT REPORT WEATHER SUCH AS RAIN...SNOW OR FOG.

NEZ001>004-019>022-054>056-071600-
NEBRASKA PANHANDLE

CITY           SKY/WX    TMP DP  RH WIND       PRES   REMARKS
SCOTTSBLUFF    CLOUDY    30  23  75 NW20      30.27R WCI  17
ALLIANCE       CLOUDY    31  19  61 NW23G32   30.20R WCI  18
CHADRON        CLOUDY    33  19  56 W14       30.20R WCI  23
SIDNEY         CLOUDY    29  24  82 NW24      30.25R WCI  15
$$

NEZ057>060-069>072-079>082-071600-
SOUTHWEST NEBRASKA

CITY           SKY/WX    TMP DP  RH WIND       PRES   REMARKS
NORTH PLATTE   CLOUDY    33  24  69 W10       30.17R WCI  25
IMPERIAL       CLOUDY    33  21  61 NW17      30.22R WCI  22
MCCOOK         CLOUDY    36  24  62 NW17      30.19R WCI  26
$$

NEZ005>010-023>029-035>040-094-071600-
NORTH CENTRAL NEBRASKA

CITY           SKY/WX    TMP DP  RH WIND       PRES   REMARKS
VALENTINE      SUNNY     35  19  52 W21G28    30.08R WCI  24
BROKEN BOW     PTSUNNY   37  23  56 NW18      30.10R WCI  27
ORD            MOSUNNY   39  22  50 NW21G28   30.07R WCI  29
$$

NEZ041-046>049-061>064-073>077-083>087-071600-
SOUTH CENTRAL NEBRASKA

CITY           SKY/WX    TMP DP  RH WIND       PRES   REMARKS
GRAND ISLAND   CLOUDY    35  23  61 W16       30.09R WCI  25
HASTINGS       CLOUDY    34  23  64 NW12      30.10R WCI  25
$$

NEZ011>018-030>034-042>045-071600-
NORTHEAST NEBRASKA

CITY           SKY/WX    TMP DP  RH WIND       PRES   REMARKS
NORFOLK        MOSUNNY   36  24  62 W16       29.99R WCI  26
COLUMBUS *     SUNNY     36  19  51 W12       30.03S WCI  27
TEKAMAH        SUNNY     38  25  59 W22       29.96R WCI  27
$$

NEZ050>053-065>068-078-088>093-071600-
SOUTHEAST NEBRASKA

CITY           SKY/WX    TMP DP  RH WIND       PRES   REMARKS
LINCOLN        SUNNY     39  25  57 NW18      30.05R WCI  30
OMAHA EPPLEY   MOSUNNY   40  25  55 NW17      29.98R WCI  31
FALLS CITY     MOSUNNY   39  27  62 W15       30.04R WCI  31
$$

NEZ044-045-051>053-067-071600-
OMAHA AREA

CITY           SKY/WX    TMP DP  RH WIND       PRES   REMARKS
OMAHA EPPLEY   MOSUNNY   40  25  55 NW17      29.98R WCI  31
OFFUTT AFB     SUNNY     37  25  60 NW16      29.98S WCI  28
$$



USA.gov is the U.S. government's official web portal to all federal, state and local government web resources and services.